Miscellaneous Local Product
Issued by NWS Hastings, NE

Home | Current Version | Previous Version | Text Only | Print | Product List | Glossary Off
Versions: 1 2 3 4 5 6 7 8 9 10 11 12 13 14 15 16 17 18 19 20 21 22 23 24 25 26 27 28 29 30 31 32 33 34 35 36 37 38 39 40 41 42 43 44 45 46 47 48 49 50

000
AXUS43 KGID 271102
MISGRI

GID CWA HOURLY WEATHER ROUNDUP
NATIONAL WEATHER SERVICE HASTINGS NE
600 AM CDT SUN JUL 27 2014

NOTE: "FAIR" INDICATES FEW OR NO CLOUDS BELOW 12,000 FEET WITH NO
SIGNIFICANT WEATHER AND/OR OBSTRUCTIONS TO VISIBILITY.

...SOUTH CENTRAL NEBRASKA...

CITY           SKY/WX    TMP DP  RH WIND       PRES   REMARKS
GRAND ISLAND   CLEAR     63  58  83 N8        30.10R
HASTINGS       CLEAR     67  57  70 N12       30.09R
KEARNEY        CLEAR     64  59  82 NW12      30.12R
ORD            CLEAR     58  52  80 NW7       30.11R
YORK             N/A     64  64 100 N5        30.08R
AURORA         CLEAR     64  63  94 N8        30.08R
LEXINGTON      CLEAR     64  59  82 N9        30.14R
HOLDREGE       CLEAR     64  60  86 N6        30.13R
HEBRON         CLEAR     68  65  90 N3        30.05R FOG

...NEBRASKA PANHANDLE...

CITY           SKY/WX    TMP DP  RH WIND       PRES   REMARKS
CHADRON        CLEAR     49  45  86 W7        30.27R
ALLIANCE       CLEAR     48  44  86 W3        30.28R
SCOTTSBLUFF    CLEAR     60  48  64 CALM      30.28R
SIDNEY         PTCLDY    62  58  86 N8        30.28R

...WESTERN AND NORTH CENTRAL NEBRASKA...

CITY           SKY/WX    TMP DP  RH WIND       PRES   REMARKS
VALENTINE      CLEAR     54  48  80 NW8       30.18R
AINSWORTH      CLEAR     55  48  80 W8        30.17R
ONEILL         PTCLDY    60  49  68 W8        30.11R
BROKEN BOW     CLEAR     58  53  84 N10       30.16R
IMPERIAL       CLEAR     62  58  86 N9        30.20R
NORTH PLATTE   CLEAR     61  51  70 NE9       30.18R
MCCOOK         PTCLDY    62  59  90 S5        30.15R

...EASTERN NEBRASKA...

CITY           SKY/WX    TMP DP  RH WIND       PRES   REMARKS
NORFOLK        PTCLDY    61  55  81 W7        30.06R
SO SIOUX CITY  CLEAR     62  57  83 W8        30.01R
COLUMBUS       CLEAR     63  55  77 N7        30.07R
ALBION         CLEAR     58  55  88 NW5       30.09R
OMAHA EPPLEY   PTCLDY    66  63  90 N6        30.01R
OFFUTT AFB     CLEAR     67  67 100 W6        30.00R
MILLARD        CLEAR     70  64  82 NW6       30.01R
LINCOLN        CLEAR     69  63  81 N8        30.04R
NEBRASKA CITY  CLEAR     69  69 100 NW7       30.00R FOG
BEATRICE       FOG       65  65 100 W5        30.03R VSB 3/4
FALLS CITY     NOT AVBL

...NORTHERN KANSAS...

CITY           SKY/WX    TMP DP  RH WIND       PRES   REMARKS
GOODLAND       CLOUDY    61  60  97 CALM      30.22R
HILL CITY      CLOUDY    68  64  87 N7        30.11R
NORTON         SUNNY     61  55  82 W6        30.13R
PHILLIPSBURG   CLEAR     66  63  88 SW3       30.10R
SMITH CENTER   CLEAR     66  64  94 SW7       30.10R
HAYS           CLOUDY    73  66  78 NE10      30.07R
RUSSELL        CLOUDY    74  71  91 NE9       30.04F
CONCORDIA      CLEAR     71  71 100 CALM      30.04R FOG
SALINA         CLOUDY    78  73  84 W5        30.04R
TOPEKA         PTCLDY    77  75  93 N8        29.97R



USA.gov is the U.S. government's official web portal to all federal, state and local government web resources and services.